This is the latest recevied weather packets stored in our database for station/object DC1NF-7. If no packets are shown the sender has not sent any weather packets the latest 10 day(s).
| Time | Temp. | Humidity | Pressure | Rain* | Wind** | Luminosity | Snow |
|---|---|---|---|---|---|---|---|
| 1777736769 | 27.22° C | 23% | 1018 hPa | 0 mm | - | 255 W/m² | - |
| 1777736166 | 27.22° C | 23% | 1018.1 hPa | 0 mm | - | 264 W/m² | - |
| 1777735558 | 27.22° C | 24% | 1018.2 hPa | 0 mm | - | 293 W/m² | - |
| 1777734954 | 27.22° C | 24% | 1018.2 hPa | 0 mm | - | 272 W/m² | - |
| 1777734350 | 27.78° C | 23% | 1018.3 hPa | 0 mm | - | 341 W/m² | - |
| 1777733747 | 27.78° C | 24% | 1018.5 hPa | 0 mm | - | 348 W/m² | - |
| 1777733144 | 28.33° C | 24% | 1018.6 hPa | 0 mm | - | 408 W/m² | - |
| 1777732539 | 28.89° C | 23% | 1018.7 hPa | 0 mm | - | 474 W/m² | - |
| 1777731935 | 27.78° C | 24% | 1018.8 hPa | 0 mm | - | 538 W/m² | - |
| 1777731334 | 27.22° C | 24% | 1019 hPa | 0 mm | - | 569 W/m² | - |
| 1777730730 | 28.33° C | 23% | 1019.1 hPa | 0 mm | - | 599 W/m² | - |
| 1777730123 | 27.78° C | 23% | 1019.2 hPa | 0 mm | - | 603 W/m² | - |
| 1777729518 | 27.78° C | 23% | 1019.4 hPa | 0 mm | - | 621 W/m² | - |
| 1777728372 | 27.78° C | 24% | 1019.7 hPa | 0 mm | - | 708 W/m² | - |
| 1777727165 | 27.78° C | 24% | 1019.9 hPa | 0 mm | - | 714 W/m² | - |
| 1777726564 | 27.22° C | 24% | 1020 hPa | 0 mm | - | 762 W/m² | - |
| 1777725956 | 26.11° C | 24% | 1020.2 hPa | 0 mm | - | 748 W/m² | - |
| 1777725353 | 27.22° C | 23% | 1020.4 hPa | 0 mm | - | 788 W/m² | - |
| 1777724753 | 27.22° C | 24% | 1020.4 hPa | 0 mm | - | 828 W/m² | - |
| 1777724147 | 26.67° C | 24% | 1020.6 hPa | 0 mm | - | 807 W/m² | - |
| 1777723543 | 26.67° C | 25% | 1020.8 hPa | 0 mm | - | 782 W/m² | - |
| 1777722941 | 26.11° C | 26% | 1021 hPa | 0 mm | - | 804 W/m² | - |
| 1777722341 | 25.56° C | 27% | 1021 hPa | 0 mm | - | 785 W/m² | - |
| 1777721733 | 25° C | 27% | 1021.2 hPa | 0 mm | - | 775 W/m² | - |
| 1777721132 | 25° C | 27% | 1021.4 hPa | 0 mm | - | 818 W/m² | - |
* Rain latest hour (hover to see other rain measurements)
** Current wind speed in m/s (hover to see current wind gust speed)